TimeEST,TemperatureF,Dew PointF,Humidity,Sea Level PressureIn,VisibilityMPH,Wind Direction,Wind SpeedMPH,Gust SpeedMPH,PrecipitationIn,Events,Conditions,WindDirDegrees,DateUTC
12:53 AM,45.0,43.0,93,29.84,7.0,Calm,Calm,-,N/A,,Overcast,0,2013-02-24 05:53:00
1:10 AM,44.6,42.8,93,29.83,7.0,WNW,4.6,-,N/A,,Overcast,300,2013-02-24 06:10:00
1:42 AM,44.6,42.8,93,29.83,4.0,WNW,4.6,-,0.00,Rain,Light Rain,290,2013-02-24 06:42:00
1:53 AM,45.0,43.0,93,29.83,5.0,West,4.6,-,0.00,,Overcast,260,2013-02-24 06:53:00
2:12 AM,44.6,42.8,93,29.82,2.5,SSW,3.5,-,0.04,Rain,Rain,210,2013-02-24 07:12:00
2:24 AM,44.6,42.8,93,29.81,4.0,Calm,Calm,-,0.04,Rain,Light Rain,0,2013-02-24 07:24:00
2:53 AM,45.0,43.0,93,29.81,3.0,West,4.6,-,0.06,Rain,Light Rain,280,2013-02-24 07:53:00
3:07 AM,44.6,42.8,93,29.80,3.0,Variable,3.5,-,0.00,Rain,Light Rain,0,2013-02-24 08:07:00
3:18 AM,44.6,42.8,93,29.79,4.0,Calm,Calm,-,0.00,Rain,Light Rain,0,2013-02-24 08:18:00
3:27 AM,44.6,42.8,93,29.78,4.0,Calm,Calm,-,0.00,,Overcast,0,2013-02-24 08:27:00
3:37 AM,44.6,42.8,93,29.79,5.0,WNW,4.6,-,0.00,,Overcast,290,2013-02-24 08:37:00
3:47 AM,44.6,42.8,93,29.79,5.0,WNW,3.5,-,0.00,,Overcast,300,2013-02-24 08:47:00
3:53 AM,45.0,43.0,93,29.79,4.0,Calm,Calm,-,0.00,Thunderstorm,Overcast,0,2013-02-24 08:53:00
4:09 AM,44.6,42.8,93,29.80,5.0,WNW,3.5,-,0.01,Rain,Light Rain,290,2013-02-24 09:09:00
4:34 AM,44.6,42.8,93,29.80,2.5,North,8.1,-,0.09,Rain,Rain,360,2013-02-24 09:34:00
4:44 AM,44.6,42.8,93,29.82,5.0,WNW,5.8,-,0.10,Rain,Light Rain,290,2013-02-24 09:44:00
4:53 AM,45.0,43.0,93,29.82,7.0,NW,4.6,-,0.10,,Overcast,310,2013-02-24 09:53:00
5:15 AM,44.6,42.8,93,29.82,6.0,Variable,3.5,-,0.00,Rain,Light Rain,0,2013-02-24 10:15:00
5:53 AM,45.0,43.0,93,29.82,5.0,ESE,4.6,-,0.00,,Overcast,120,2013-02-24 10:53:00
6:11 AM,44.6,42.8,93,29.84,5.0,West,3.5,-,N/A,,Overcast,270,2013-02-24 11:11:00
6:53 AM,45.0,43.0,93,29.87,7.0,West,4.6,-,N/A,,Overcast,270,2013-02-24 11:53:00
7:53 AM,46.0,43.0,89,29.87,6.0,Calm,Calm,-,N/A,,Overcast,0,2013-02-24 12:53:00
8:19 AM,46.4,44.6,93,29.89,6.0,West,3.5,-,N/A,,Overcast,280,2013-02-24 13:19:00
8:40 AM,46.4,44.6,93,29.90,6.0,West,5.8,-,N/A,,Mostly Cloudy,280,2013-02-24 13:40:00
8:53 AM,48.0,44.1,86,29.91,7.0,West,5.8,-,N/A,,Mostly Cloudy,280,2013-02-24 13:53:00
9:53 AM,48.0,45.0,89,29.93,6.0,West,9.2,-,N/A,,Overcast,280,2013-02-24 14:53:00
10:28 AM,51.8,46.4,82,29.93,8.0,Variable,4.6,-,N/A,,Scattered Clouds,0,2013-02-24 15:28:00
10:53 AM,54.0,46.0,75,29.93,10.0,NW,6.9,-,N/A,,Clear,320,2013-02-24 15:53:00
11:53 AM,57.9,37.9,47,29.93,10.0,NW,11.5,16.1,N/A,,Clear,320,2013-02-24 16:53:00
12:53 PM,60.1,37.9,44,29.90,10.0,NW,10.4,16.1,N/A,,Clear,320,2013-02-24 17:53:00
1:53 PM,61.0,34.0,36,29.89,10.0,NNW,11.5,-,N/A,,Clear,330,2013-02-24 18:53:00
2:53 PM,61.0,35.1,38,29.88,10.0,West,8.1,-,N/A,,Clear,270,2013-02-24 19:53:00
3:53 PM,62.1,37.0,39,29.88,10.0,West,8.1,-,N/A,,Clear,260,2013-02-24 20:53:00
4:53 PM,61.0,33.1,35,29.90,10.0,Variable,4.6,-,N/A,,Clear,0,2013-02-24 21:53:00
5:53 PM,57.0,32.0,39,29.91,10.0,West,3.5,-,N/A,,Clear,260,2013-02-24 22:53:00
6:53 PM,46.0,37.9,73,29.94,10.0,Calm,Calm,-,N/A,,Clear,0,2013-02-24 23:53:00
7:53 PM,45.0,37.9,76,29.97,10.0,Calm,Calm,-,N/A,,Clear,0,2013-02-25 00:53:00
8:53 PM,42.1,37.0,82,30.00,10.0,Calm,Calm,-,N/A,,Clear,0,2013-02-25 01:53:00
9:53 PM,39.0,35.1,86,30.01,10.0,Calm,Calm,-,N/A,,Clear,0,2013-02-25 02:53:00
10:53 PM,45.0,28.9,53,30.01,10.0,NNW,5.8,-,N/A,,Clear,340,2013-02-25 03:53:00
11:53 PM,45.0,27.0,49,30.04,10.0,NNW,4.6,-,N/A,,Clear,330,2013-02-25 04:53:00